Regional Weather Roundup
Issued by NWS

Home | Current Version | Previous Version | Graphics & Text | Print | Product List | Glossary On
Versions: 1 2 3 4 5 6 7 8 9 10 11 12 13 14 15 16 17 18 19 20 21 22 23 24 25 26 27 28 29 30 31 32 33 34 35 36 37 38 39 40 41 42 43 44 45 46 47 48 49 50
158
ASUS43 KOAX 071010
RWRNE

WEATHER ROUNDUP FOR NEBRASKA
NATIONAL WEATHER SERVICE OMAHA NE
400 AM CST SUN FEB 07 2016

NOTES: SATELLITE DATA IS BEING USED TO AUGMENT CLOUD COVER ABOVE
       12000 FEET.
       "FAIR" INDICATES FEW OR NO CLOUDS BELOW 12,000 FEET WITH NO
       SIGNIFICANT WEATHER AND/OR OBSTRUCTIONS TO VISIBILITY.

  * THESE STATIONS DO NOT REPORT WEATHER SUCH AS RAIN...SNOW OR FOG.

NEZ001>004-019>022-054>056-071100-
NEBRASKA PANHANDLE

CITY           SKY/WX    TMP DP  RH WIND       PRES   REMARKS
SCOTTSBLUFF    CLOUDY    29  20  69 W8        30.16R WCI  21
ALLIANCE       CLOUDY    24  17  74 W13       30.11R WCI  12
CHADRON        CLOUDY    35  22  58 W12       30.14R WCI  27
KIMBALL        CLEAR     28  17  63 NW12      30.14S WCI  18
SIDNEY         PTCLDY    25  16  68 NW10      30.14R WCI  15
$$

NEZ057>060-069>072-079>082-071100-
SOUTHWEST NEBRASKA

CITY           SKY/WX    TMP DP  RH WIND       PRES   REMARKS
NORTH PLATTE   PTCLDY    26  21  81 W7        30.08S WCI  18
IMPERIAL       CLEAR     29  20  69 NW8       30.11S WCI  21
LEXINGTON      PTCLDY    35  26  70 W13       30.05F WCI  26
MCCOOK         PTCLDY    34  26  72 W16       30.08F WCI  24
OGALLALA       CLOUDY    31  19  61 NW16      30.11R WCI  20
$$

NEZ005>010-023>029-035>040-094-071100-
NORTH CENTRAL NEBRASKA

CITY           SKY/WX    TMP DP  RH WIND       PRES   REMARKS
VALENTINE      CLOUDY    36  24  62 W13       30.03R WCI  27
AINSWORTH      CLEAR     36  24  62 W13       30.03R WCI  27
BROKEN BOW     CLOUDY    40  22  48 NW20      30.03S WCI  30
O`NEILL        CLEAR     38  25  60 W20G25    29.98R WCI  27
ORD            CLEAR     34  24  67 NW10      30.01R WCI  26
THEDFORD       CLOUDY    35  28  76 W12       30.07S WCI  27
$$

NEZ041-046>049-061>064-073>077-083>087-071100-
SOUTH CENTRAL NEBRASKA

CITY           SKY/WX    TMP DP  RH WIND       PRES   REMARKS
GRAND ISLAND   CLOUDY    34  25  69 W14       30.01S WCI  25
AURORA         CLOUDY    32  26  77 W12       29.99S WCI  23
HASTINGS       CLOUDY    37  25  61 NW16      30.01S WCI  28
HEBRON         CLOUDY    36  28  74 NW9       30.01R WCI  29
HOLDREGE       CLOUDY    35  27  71 NW8       30.04F WCI  29
YORK           PTCLDY    34  27  75 NW13      29.99R WCI  25
$$

NEZ011>018-030>034-042>045-071100-
NORTHEAST NEBRASKA

CITY           SKY/WX    TMP DP  RH WIND       PRES   REMARKS
NORFOLK        CLEAR     39  25  57 NW15      29.94R WCI  31
ALBION         CLEAR     36  25  63 NW17      29.98R WCI  26
BLAIR          CLOUDY    33  27  77 W8        29.92R WCI  26
COLUMBUS *     CLOUDY    36  19  51 W6        29.96S WCI  31
FREMONT        CLOUDY    34  25  71 W13       29.94R WCI  25
TEKAMAH        CLEAR     32  24  72 W6        29.92S WCI  26
WAYNE          CLEAR     37  27  67 NW16G22   29.93R WCI  28
$$

NEZ050>053-065>068-078-088>093-071100-
SOUTHEAST NEBRASKA

CITY           SKY/WX    TMP DP  RH WIND       PRES   REMARKS
LINCOLN        CLOUDY    36  26  67 NW9       29.98R WCI  29
OMAHA EPPLEY   CLOUDY    32  26  78 CALM      29.93S
BEATRICE       CLOUDY    31  27  86 W3        29.98S
FALLS CITY     CLOUDY    37  26  64 W15       29.96R WCI  28
NEBRASKA CITY  CLOUDY    34  29  81 W10       29.95S WCI  26
PLATTSMOUTH    CLOUDY    33  28  79 W10       29.93S WCI  25
$$

NEZ044-045-051>053-067-071100-
OMAHA AREA

CITY           SKY/WX    TMP DP  RH WIND       PRES   REMARKS
OMAHA EPPLEY   CLOUDY    32  26  78 CALM      29.93S
BLAIR          CLOUDY    33  27  77 W8        29.92R WCI  26
FREMONT        CLOUDY    34  25  71 W13       29.94R WCI  25
MILLARD        CLOUDY    29  26  88 CALM      29.94S
OFFUTT AFB     CLOUDY    28  25  90 W5        29.93S WCI  22
PLATTSMOUTH    CLOUDY    33  28  79 W10       29.93S WCI  25
WAHOO          FAIR      38  28  67 NW17      29.95R WCI  28
$$




USA.gov is the U.S. government's official web portal to all federal, state and local government web resources and services.